• In Germany
  • List of Countries
  • For 7 days
  • Water Temperature
  • Satellite Maps
  • Weather Map
  • Weather Widgets
  • user-avatar
    Login

    Hourly Weather Makoua

    Today, 25 September, Monday

    Time Temperature Precipitation Wind Pressure Humidity
    00:00 +25°C° 0 mm 1 mps 726 mmHg 87%
    01:00 +24°C° 0 mm 1 mps 726 mmHg 88%
    02:00 +24°C° 0 mm 1 mps 726 mmHg 89%
    03:00 +24°C° 0 mm 1 mps 726 mmHg 90%
    04:00 +24°C° 0 mm 1 mps 726 mmHg 91%
    05:00 +24°C° 0 mm 1 mps 726 mmHg 87%
    06:00 +25°C° 0 mm 1 mps 727 mmHg 84%
    07:00 +26°C° 0 mm 1 mps 727 mmHg 81%
    08:00 +28°C° 0 mm 1 mps 727 mmHg 70%
    09:00 +31°C° 0 mm 2 mps 728 mmHg 60%
    10:00 +34°C° 0 mm 2 mps 728 mmHg 49%
    11:00 +34°C° 0 mm 1 mps 727 mmHg 47%
    12:00 +34°C° 0 mm 1 mps 726 mmHg 44%
    13:00 +35°C° 0 mm 1 mps 726 mmHg 41%
    14:00 +34°C° 0 mm 1 mps 725 mmHg 44%
    15:00 +34°C° 0 mm 1 mps 725 mmHg 47%
    16:00 +33°C° 0 mm 1 mps 724 mmHg 50%
    17:00 +32°C° 0 mm 1 mps 724 mmHg 55%
    18:00 +30°C° 0 mm 1 mps 725 mmHg 60%
    19:00 +29°C° 0 mm 1 mps 725 mmHg 65%
    20:00 +27°C° 0.2 mm 1 mps 725 mmHg 72%
    21:00 +26°C° 0.2 mm 1 mps 725 mmHg 79%
    22:00 +25°C° 0.2 mm 1 mps 726 mmHg 86%
    23:00 +25°C° 0.1 mm 1 mps 726 mmHg 88%

    Tomorrow, 26 September, Tuesday

    Time Temperature Precipitation Wind Pressure Humidity
    00:00 +24°C° 0.1 mm 1 mps 725 mmHg 90%
    01:00 +24°C° 0.1 mm 1 mps 725 mmHg 92%
    02:00 +24°C° 0 mm 1 mps 725 mmHg 93%
    03:00 +23°C° 0 mm 1 mps 725 mmHg 94%
    04:00 +23°C° 0 mm 1 mps 725 mmHg 95%
    05:00 +24°C° 0 mm 1 mps 725 mmHg 93%
    06:00 +24°C° 0 mm 1 mps 726 mmHg 91%
    07:00 +25°C° 0 mm 1 mps 726 mmHg 88%
    08:00 +27°C° 0.1 mm 1 mps 726 mmHg 78%
    09:00 +30°C° 0.1 mm 1 mps 727 mmHg 68%
    10:00 +32°C° 0.1 mm 2 mps 727 mmHg 58%
    11:00 +32°C° 0.3 mm 2 mps 726 mmHg 57%
    12:00 +34°C° 0.3 mm 2 mps 726 mmHg 57%
    13:00 +33°C° 0.3 mm 1 mps 725 mmHg 56%
    14:00 +33°C° 0.6 mm 1 mps 724 mmHg 59%
    15:00 +32°C° 0.6 mm 1 mps 724 mmHg 61%
    16:00 +32°C° 0.6 mm 1 mps 723 mmHg 63%
    17:00 +30°C° 0.1 mm 1 mps 724 mmHg 71%
    18:00 +28°C° 0.1 mm 1 mps 724 mmHg 78%
    19:00 +26°C° 0.1 mm 1 mps 725 mmHg 85%
    20:00 +26°C° 0 mm 1 mps 725 mmHg 87%
    21:00 +26°C° 0 mm 1 mps 725 mmHg 88%
    22:00 +25°C° 0 mm 1 mps 726 mmHg 90%
    23:00 +25°C° 0.2 mm 1 mps 726 mmHg 91%

    Day after tomorrow, 27 September, Wednesday

    Time Temperature Precipitation Wind Pressure Humidity
    00:00 +24°C° 0.2 mm 1 mps 725 mmHg 92%
    01:00 +24°C° 0.2 mm 1 mps 725 mmHg 94%
    02:00 +24°C° 0.2 mm 1 mps 725 mmHg 94%
    03:00 +24°C° 0.2 mm 1 mps 725 mmHg 95%
    04:00 +23°C° 0.2 mm 1 mps 725 mmHg 96%
    05:00 +24°C° 0 mm 1 mps 726 mmHg 95%
    06:00 +24°C° 0 mm 1 mps 726 mmHg 94%
    07:00 +24°C° 0 mm 1 mps 727 mmHg 93%
    08:00 +26°C° 0.6 mm 1 mps 727 mmHg 88%
    09:00 +27°C° 0.6 mm 1 mps 728 mmHg 84%
    10:00 +28°C° 0.6 mm 1 mps 728 mmHg 80%
    11:00 +29°C° 1.6 mm 1 mps 727 mmHg 79%
    12:00 +29°C° 1.6 mm 1 mps 727 mmHg 78%
    13:00 +29°C° 1.6 mm 1 mps 726 mmHg 76%
    14:00 +29°C° 0.8 mm 1 mps 725 mmHg 77%
    15:00 +29°C° 0.8 mm 1 mps 725 mmHg 78%
    16:00 +29°C° 0.8 mm 1 mps 725 mmHg 78%
    17:00 +26°C° 0 mm 0 mps 725 mmHg 82%
    18:00 +25°C° 0 mm 0 mps 726 mmHg 86%
    19:00 +23°C° 0 mm 0 mps 726 mmHg 90%
    20:00 +23°C° 0 mm 0 mps 726 mmHg 90%
    21:00 +23°C° 0 mm 0 mps 727 mmHg 91%
    22:00 +23°C° 0 mm 0 mps 727 mmHg 92%
    23:00 +24°C° 0 mm 1 mps 727 mmHg 93%

    28 September, Thursday

    Time Temperature Precipitation Wind Pressure Humidity
    00:00 +24°C° 0 mm 1 mps 726 mmHg 93%
    01:00 +24°C° 0 mm 1 mps 726 mmHg 94%
    02:00 +24°C° 0 mm 1 mps 725 mmHg 95%
    03:00 +23°C° 0 mm 1 mps 725 mmHg 96%
    04:00 +23°C° 0 mm 1 mps 725 mmHg 96%
    05:00 +24°C° 0 mm 1 mps 726 mmHg 94%
    06:00 +24°C° 0 mm 1 mps 727 mmHg 91%
    07:00 +25°C° 0 mm 1 mps 727 mmHg 88%
    08:00 +27°C° 0 mm 1 mps 728 mmHg 78%
    09:00 +29°C° 0 mm 1 mps 728 mmHg 68%
    10:00 +31°C° 0 mm 2 mps 729 mmHg 58%
    11:00 +32°C° 0.3 mm 1 mps 728 mmHg 56%
    12:00 +33°C° 0.3 mm 1 mps 727 mmHg 54%
    13:00 +34°C° 0.3 mm 1 mps 726 mmHg 53%
    14:00 +33°C° 0.6 mm 1 mps 726 mmHg 58%
    15:00 +32°C° 0.6 mm 1 mps 725 mmHg 64%
    16:00 +30°C° 0.6 mm 1 mps 725 mmHg 69%
    17:00 +29°C° 0.2 mm 1 mps 725 mmHg 75%
    18:00 +27°C° 0.2 mm 1 mps 726 mmHg 81%
    19:00 +24°C° 0.2 mm 0 mps 726 mmHg 87%
    20:00 +26°C° 0 mm 1 mps 726 mmHg 88%
    21:00 +25°C° 0 mm 1 mps 726 mmHg 90%
    22:00 +25°C° 0 mm 1 mps 726 mmHg 91%
    23:00 +24°C° 0.2 mm 1 mps 726 mmHg 92%

    29 September, Friday

    Time Temperature Precipitation Wind Pressure Humidity
    00:00 +24°C° 0.2 mm 1 mps 726 mmHg 93%
    01:00 +24°C° 0.2 mm 1 mps 726 mmHg 94%
    02:00 +23°C° 0.2 mm 1 mps 726 mmHg 95%
    03:00 +23°C° 0.2 mm 1 mps 726 mmHg 95%
    04:00 +23°C° 0.2 mm 1 mps 726 mmHg 96%
    05:00 +24°C° 0.1 mm 1 mps 726 mmHg 94%
    06:00 +24°C° 0.1 mm 1 mps 727 mmHg 92%
    07:00 +25°C° 0.1 mm 1 mps 727 mmHg 89%
    08:00 +26°C° 0.9 mm 1 mps 727 mmHg 86%
    09:00 +28°C° 0.9 mm 1 mps 728 mmHg 82%
    10:00 +29°C° 0.9 mm 1 mps 728 mmHg 79%
    11:00 +30°C° 1.2 mm 1 mps 727 mmHg 74%
    12:00 +31°C° 1.2 mm 1 mps 726 mmHg 69%
    13:00 +31°C° 1.2 mm 1 mps 725 mmHg 65%
    14:00 +31°C° 1.8 mm 1 mps 725 mmHg 71%
    15:00 +30°C° 1.8 mm 1 mps 725 mmHg 77%
    16:00 +29°C° 1.8 mm 1 mps 725 mmHg 83%
    17:00 +28°C° 0.4 mm 1 mps 725 mmHg 86%
    18:00 +24°C° 0.4 mm 0 mps 726 mmHg 89%
    19:00 +23°C° 0.4 mm 0 mps 726 mmHg 92%
    20:00 +23°C° 0 mm 0 mps 726 mmHg 93%
    21:00 +23°C° 0 mm 0 mps 726 mmHg 93%
    22:00 +22°C° 0 mm 0 mps 727 mmHg 94%
    23:00 +24°C° 0 mm 1 mps 726 mmHg 94%

    30 September, Saturday

    Time Temperature Precipitation Wind Pressure Humidity
    00:00 +24°C° 0 mm 1 mps 725 mmHg 95%
    01:00 +24°C° 0 mm 1 mps 725 mmHg 96%
    02:00 +23°C° 0 mm 1 mps 725 mmHg 96%
    03:00 +23°C° 0 mm 1 mps 725 mmHg 95%
    04:00 +23°C° 0 mm 1 mps 725 mmHg 95%
    05:00 +23°C° 0 mm 1 mps 725 mmHg 94%
    06:00 +24°C° 0 mm 1 mps 726 mmHg 93%
    07:00 +24°C° 0 mm 1 mps 727 mmHg 92%
    08:00 +25°C° 0.1 mm 1 mps 727 mmHg 86%
    09:00 +27°C° 0.1 mm 1 mps 727 mmHg 80%
    10:00 +28°C° 0.1 mm 2 mps 727 mmHg 74%
    11:00 +29°C° 0.2 mm 2 mps 726 mmHg 69%
    12:00 +30°C° 0.2 mm 2 mps 726 mmHg 65%
    13:00 +31°C° 0.2 mm 2 mps 725 mmHg 60%
    14:00 +31°C° 0.3 mm 1 mps 724 mmHg 62%
    15:00 +31°C° 0.3 mm 1 mps 724 mmHg 64%
    16:00 +30°C° 0.3 mm 1 mps 724 mmHg 66%
    17:00 +29°C° 0 mm 1 mps 724 mmHg 73%
    18:00 +27°C° 0 mm 1 mps 725 mmHg 79%
    19:00 +26°C° 0 mm 1 mps 725 mmHg 85%
    20:00 +26°C° 0 mm 1 mps 725 mmHg 86%
    21:00 +25°C° 0 mm 1 mps 726 mmHg 88%
    22:00 +25°C° 0 mm 1 mps 726 mmHg 89%
    23:00 +25°C° 0 mm 1 mps 726 mmHg 90%
    Show more